Weather History for Wolf Point, MT

Change the Weather History Date:

Tuesday, September 24, 2013

  Actual Average Record
Temperature  
Mean Temperature 54 °F -  
Max Temperature 75 °F 70 °F 91 °F (2011)
Min Temperature 32 °F 37 °F 21 °F (2000)
Degree Days  
Heating Degree Days 11    
Cooling Degree Days 0    
Growing Degree Days 3 (Base 50)    
Moisture  
Dew Point 34 °F    
Average Humidity 49    
Maximum Humidity 85    
Minimum Humidity 20    
Precipitation  
Precipitation T in 0.03 in 0.04 in (2002)
Month to date precipitation 0.87 0.82  
Year to date precipitation 12.51 10.49  
Sea Level Pressure  
Sea Level Pressure 29.82 in    
Wind  
Wind Speed 4 mph (SSE)    
Max Wind Speed 12 mph    
Max Gust Speed 20 mph    
Visibility 10 miles    
Events      
T = Trace of Precipitation, MM = Missing Value Source: NWS Daily Summary

Daily Weather History Graph

Daily Weather History Graph

Search for Another Location

Airport:

Trip Planner

Search our weather history database for the weather conditions in past years. The results will help you decide how hot, cold, wet, or windy it might be!

Date:

Astronomy

Sep. 24, 2013 Rise Set
Actual Time 6:52 AM MDT 6:55 PM MDT
Civil Twilight 6:21 AM MDT 7:26 PM MDT
Nautical Twilight 5:44 AM MDT 8:02 PM MDT
Astronomical Twilight 5:07 AM MDT 8:39 PM MDT
Moon 9:51 PM MDT (9/24) 12:32 PM MDT (9/24)
Length of Visible Light 13h 05m
Length of Day
12h 03m
Waning Gibbous, 72% of the Moon is Illuminated
Sep 24
Waning Gibbous
Sep 26
Last Quarter
Oct 4
New
Oct 11
First Quarter
Oct 18
Full

Hourly Weather History & Observations

Time (MDT) Temp. Windchill Dew Point Humidity Pressure Visibility Wind Dir Wind Speed Gust Speed Precip Events Conditions
12:53 AM 42.1 °F 38.4 °F 33.1 °F 70% 29.86 in 10.0 mi SSW 5.8 mph - N/A   Clear
1:53 AM 39.9 °F - 32.0 °F 73% 29.88 in 10.0 mi Calm Calm - N/A   Clear
2:53 AM 37.9 °F 34.4 °F 30.9 °F 76% 29.89 in 10.0 mi SSW 4.6 mph - N/A   Clear
3:53 AM 35.1 °F 31.0 °F 30.9 °F 85% 29.91 in 10.0 mi WSW 4.6 mph - N/A   Clear
4:53 AM 36.0 °F - 30.0 °F 79% 29.92 in 10.0 mi Calm Calm - N/A   Clear
5:53 AM 33.1 °F 28.7 °F 28.9 °F 85% 29.93 in 10.0 mi NW 4.6 mph - N/A   Clear
6:53 AM 33.1 °F 30.0 °F 28.9 °F 85% 29.95 in 10.0 mi West 3.5 mph - N/A   Clear
7:53 AM 41.0 °F - 34.0 °F 76% 29.95 in 9.0 mi Calm Calm - N/A   Clear
8:53 AM 50.0 °F - 35.1 °F 57% 29.94 in 10.0 mi Calm Calm - N/A   Clear
9:53 AM 57.9 °F - 36.0 °F 44% 29.93 in 10.0 mi Calm Calm - N/A   Clear
10:53 AM 64.9 °F - 37.0 °F 36% 29.91 in 10.0 mi Calm Calm - N/A   Clear
11:53 AM 70.0 °F - 30.9 °F 24% 29.88 in 10.0 mi SW 4.6 mph - N/A   Clear
12:53 PM 73.0 °F - 32.0 °F 22% 29.86 in 10.0 mi SW 10.4 mph 19.6 mph N/A   Clear
1:53 PM 73.0 °F - 30.9 °F 21% 29.82 in 10.0 mi SW 8.1 mph - N/A   Clear
2:53 PM 73.0 °F - 30.0 °F 20% 29.80 in 10.0 mi Calm Calm - N/A   Clear
3:53 PM 73.9 °F - 30.0 °F 20% 29.78 in 10.0 mi Calm Calm - N/A   Clear
4:53 PM 72.0 °F - 34.0 °F 25% 29.76 in 10.0 mi Variable 3.5 mph - N/A   Clear
5:53 PM 70.0 °F - 36.0 °F 29% 29.75 in 10.0 mi East 9.2 mph - N/A   Partly Cloudy
6:53 PM 66.9 °F - 37.9 °F 34% 29.75 in 10.0 mi East 9.2 mph - N/A   Overcast
7:53 PM 64.9 °F - 37.0 °F 36% 29.73 in 10.0 mi East 8.1 mph - N/A   Overcast
8:53 PM 62.1 °F - 37.9 °F 41% 29.70 in 10.0 mi ENE 9.2 mph - N/A   Scattered Clouds
9:53 PM 62.1 °F - 37.9 °F 41% 29.66 in 10.0 mi ENE 11.5 mph - N/A   Partly Cloudy
10:53 PM 61.0 °F - 39.0 °F 44% 29.63 in 10.0 mi East 10.4 mph - N/A   Scattered Clouds
11:53 PM 60.1 °F - 39.9 °F 47% 29.60 in 10.0 mi ENE 8.1 mph - N/A   Mostly Cloudy